User: anonymous   Login
Location: *
(42.5628°N, 2.3633°E)
Time: 02:44:30
(UTC+00:00)
Language:

Cosmos 1943 Rocket - Orbit

View from above orbital plane
View from above orbital plane
View from above satellite
View from above satellite

Ground track
Ground track

The orbit data is extracted from the following two-line orbital elements,

1 19120U 88039B   20192.51585679 -.00000109 +00000-0 -28790-4 0  9993
2 19120 071.0141 119.7926 0024173 271.5304 088.3051 14.19208252664929
Epoch (UTC): 10 July 2020 12:22:50
Eccentricity: 0.0024173
inclination: 71.0141°
perigee height: 810 km
apogee height: 845 km
right ascension of ascending node: 119.7926°
argument of perigee: 271.5304°
revolutions per day: 14.19208252
mean anomaly at epoch: 88.3051°
orbit number at epoch: 66492

The dashed part of the orbit path shows where the satellite is in the earth's shadow,  

DLR